Regional Weather Roundup
Issued by NWS

Home | Current Version | Previous Version | Graphics & Text | Print | Product List | Glossary On
Versions: 1 2 3 4 5 6 7 8 9 10 11 12 13 14 15 16 17 18 19 20 21 22 23 24 25 26 27 28 29 30 31 32 33 34 35 36 37 38 39 40 41 42 43 44 45 46 47 48 49 50
000
ASUS43 KMPX 241910
RWRMN
WEATHER ROUNDUP FOR MINNESOTA
NATIONAL WEATHER SERVICE TWIN CITIES/CHANHASSEN MN
200 PM CDT SUN MAY 24 2015


NOTE: "FAIR" INDICATES FEW OR NO CLOUDS BELOW 12,000 FEET WITH NO
SIGNIFICANT WEATHER AND/OR OBSTRUCTIONS TO VISIBILITY. N/A MEANS
CURRENT SKY AND/OR WEATHER CONDITIONS ARE NOT AVAILABLE.

MNZ060>063-068>070-242000-
   Twin Cities Metro

CITY           SKY/WX    TMP DP  RH WIND       PRES   REMARKS
TWIN CITIES    LGT RAIN  61  57  87 E13       29.97F
ST PAUL        LGT RAIN  60  56  86 SE13      29.99F
CRYSTAL        LGT RAIN  63  57  81 E8        29.98F
BLAINE         LGT RAIN  64  59  82 E12G18    29.99F
LAKEVILLE      CLOUDY    59  57  94 E15G21    29.96F
EDEN PRAIRIE   LGT RAIN  61  57  87 E14       29.96F
SOUTH ST PAUL  LGT RAIN  60  57  87 E6        29.98F
LAKE ELMO      RAIN      61  57  88 E7        30.01F
$$
MNZ001>005-007-008-013>017-022>024-027-028-242000-
   Northwest Minnesota

CITY           SKY/WX    TMP DP  RH WIND       PRES   REMARKS
BEMIDJI        CLOUDY    68  46  44 E8        30.02F
HALLOCK        PTSUNNY   77  39  25 E5        29.98F
ROSEAU         MOSUNNY   79  39  24 CALM      29.99F
WARROAD        MOSUNNY   75  46  35 E6        30.00F
THIEF RVR FALL PTSUNNY   73  45  35 SE10      30.00F
CROOKSTON      CLOUDY    73  46  38 SE7       30.00S
FOSSTON        CLOUDY    70  46  43 E6        30.02F
DETROIT LAKES  CLOUDY    66  46  48 E12G18    30.01S
MOORHEAD       CLOUDY    70  48  46 E13G20    29.98F
PARK RAPIDS    CLOUDY    69  48  47 E9        30.00F
MAHNOMEN       CLOUDY    68  47  45 SE8       30.00F
$$
MNZ006-009>011-018-025>026-242000-
   North Central Minnesota

CITY           SKY/WX    TMP DP  RH WIND       PRES   REMARKS
BAUDETTE       MOSUNNY   77  40  26 CALM      30.00F
FLAG ISLAND    SUNNY     63  54  72 S7        29.98F
INTL FALLS     MOSUNNY   78  43  28 NE5       29.99F
WASKISH        PTSUNNY   72  54  53 CALM      30.01F
BIG FORK       CLOUDY    73  46  38 S6        30.02F
LONGVILLE      CLOUDY    70  50  49 E8        30.01F
GRAND RAPIDS   CLOUDY    70  46  43 E6        30.03F
CRANE LAKE     PTSUNNY   75  37  25 CALM      30.02F
ORR            PTSUNNY   75  37  25 CALM      29.99F
COOK           PTSUNNY   75  45  33 SE7       30.02F HAZE
WALKER         MOCLDY    68  48  49 E5        30.01F
$$
MNZ012-019>021-037-242000-
   Northeast Minnesota

CITY           SKY/WX    TMP DP  RH WIND       PRES   REMARKS
DULUTH         CLOUDY    69  43  38 E5        30.04F
ELY            PTSUNNY   75  37  25 SW7       30.02F
HIBBING        CLOUDY    72  44  36 SE7       30.02F
EVELETH        CLOUDY    72  43  35 S3        30.04F
DULUTH HARBOR  CLOUDY    61  46  59 CALM      30.03F
TWO HARBORS    CLOUDY    73  52  46 SE3       30.02F
GRAND MARAIS     N/A     46  39  76 SW6       30.04F
G MARAIS ARPRT MOSUNNY   72  39  30 S8        30.06F
$$
MNZ029>031-032-039>041-046>048-054>057-064-242000-
   West Central Minnesota

CITY           SKY/WX    TMP DP  RH WIND       PRES   REMARKS
FERGUS FALLS   CLOUDY    68  50  52 SE12      29.97F
WHEATON        CLOUDY    63  52  67 E13       29.97F
MORRIS         LGT RAIN  64  57  77 E14       29.95F
ALEXANDRIA     CLOUDY    63  55  75 E9        29.99F
ELBOW LAKE     LGT RAIN  63  54  71 E12       29.97F
WADENA         CLOUDY    66  50  55 E10       29.99F
GLENWOOD       CLOUDY    61  57  88 E12       29.99F
APPLETON       RAIN      63  57  82 E12       29.94F
BENSON         LGT RAIN  61  55  82 SE10      29.96F
ORTONVILLE     DRIZZLE   63  55  77 E12       29.94F
MADISON        LGT RAIN  63  57  82 E10       29.93F
WILLMAR        LGT RAIN  63  59  88 E14       29.96F
$$
MNZ033>034-036-042>043-049>051-058-059-242000-
   Central Minnesota

CITY           SKY/WX    TMP DP  RH WIND       PRES   REMARKS
ST CLOUD       CLOUDY    63  56  78 E7        29.98F
SAUK CENTRE    CLOUDY    62  55  77 E10       29.99F
PAYNESVILLE    LGT RAIN  58  56  92 NE10      29.98F
AITKIN         CLOUDY    66  50  55 E7        30.00F
PINE RIVER     CLOUDY    66  52  59 E9        30.04F
BRAINERD       CLOUDY    67  49  52 SE10      30.01F
STAPLES        CLOUDY    66  48  52 SE8       29.99F
LONG PRAIRIE   LGT RAIN  61  54  77 E7        30.00F
LITTLE FALLS   LGT RAIN  61  54  77 E3        30.00F
LITCHFIELD     DRIZZLE   63  61  94 E10       29.97F
BUFFALO        CLOUDY    63  56  78 E9        29.99F
MAPLE LAKE     DRIZZLE   63  57  82 E9        29.99F
$$
MNZ037-044-045-052-053-242000-
   East Central Minnesota

CITY           SKY/WX    TMP DP  RH WIND       PRES   REMARKS
PRINCETON      RAIN      64  57  77 SE10      30.01S
MORA           CLOUDY    64  52  63 E5        30.02F
CAMBRIDGE      RAIN      64  54  68 E6        29.99F
RUSH CITY      CLOUDY    64  56  73 S6        30.01F
MOOSE LAKE     CLOUDY    68  50  52 CALM      30.00F
HINCKLEY       MOCLDY    68  54  60 E5        30.01F
CLOQUET        CLOUDY    66  43  42 E5        30.03F
MCGREGOR       CLOUDY    64  50  59 E7        30.02F
$$
MNZ071>073-080-081-089-090-097-098-242000-
   Southwest Minnesota

CITY           SKY/WX    TMP DP  RH WIND       PRES   REMARKS
MONTEVIDEO     DRIZZLE   61  61 100 SE12      29.95F
GRANITE FALLS  DRIZZLE   59  58  94 NE10      29.94F
CANBY          DRIZZLE   60  58  93 E13       29.93F
MARSHALL       CLOUDY    59  54  82 E12       29.91F
REDWOOD FALLS  LGT RAIN  61  58  90 E9G22     29.92F FOG
OLIVIA         CLOUDY    57  54  88 E7        29.93F FOG
PIPESTONE      CLOUDY    61  57  88 E9        29.88F
WINDOM         DRIZZLE   61  57  88 E12G18    29.89F
WORTHINGTON    CLOUDY    61  55  82 E13       29.87F
JACKSON        LGT RAIN  59  59 100 E13       29.88F
TRACY          DRIZZLE   60  59  96 E13G18    29.90F
SLAYTON        LGT RAIN  59  59 100 E14       29.90F
$$
MNZ065>067-074>077-082>085-091>093-242000-
   South Central Minnesota

CITY           SKY/WX    TMP DP  RH WIND       PRES   REMARKS
MANKATO        CLOUDY    61  57  88 E12       29.92F
NEW ULM        LGT RAIN  61  57  88 E12G17    29.92F
ST JAMES       RAIN      61  61 100 E12       29.91F
FAIRMONT       CLOUDY    59  54  82 E13       29.88F
GLENCOE        LGT RAIN  62  59  92 E14G21    29.95F
FARIBAULT      RAIN      61  57  88 E13       29.95F
OWATONNA       LGT RAIN  61  57  88 E12       29.93F
WASECA         RAIN      59  55  88 E17       29.93F
ALBERT LEA     HVY RAIN  59  59 100 SE12G17   29.91F
$$
MNZ078>079-086>088-094>096-242000-
   Southeast Minnesota

CITY           SKY/WX    TMP DP  RH WIND       PRES   REMARKS
ROCHESTER      RAIN      58  56  93 E17       29.96F FOG
RED WING       LGT RAIN  61  57  88 E9G16     29.97F
STANTON        LGT RAIN  62  57  86 E10       29.95F
DODGE CENTER   LGT RAIN  59  57  94 E14G21    29.95F
WINONA         RAIN      59  57  94 E12       29.99F
AUSTIN         RAIN      59  55  88 E17G23    29.92F
PRESTON        LGT RAIN  57  55  94 E15G22    29.95F
$$
ABBREVIATIONS USED IN REMARKS
   TC - TEMPERATURES IN CELSIUS
  WCI - WIND CHILL INDEX
   HX - HEAT INDEX
  VSB - VISIBILITY
$$



USA.gov is the U.S. government's official web portal to all federal, state and local government web resources and services.